Location: Okie-Tex Star Party
(36.8978°N, 102.9520°W)
Time: 23:24:50
(UTC-05:00)

Oscar 16 - Visible Passes

Search period start: 01 September 2014 00:00
Search period end: 11 September 2014 00:00
Orbit: 777 x 791 km, 98.5° (Epoch: 31 August)

Date Brightness Start Highest point End Pass type
(mag) Time Alt. Az. Time Alt. Az. Time Alt. Az.
01 Sep 13.4 02:48:20 10° NNE 02:49:04 14° NE 02:49:04 14° NE visible
01 Sep 12.7 04:27:54 10° NNW 04:29:39 18° NNW 04:29:39 18° NNW visible
02 Sep 12.7 03:56:00 10° N 03:57:49 22° N 03:57:49 22° N visible
03 Sep 13.0 03:24:32 10° NNE 03:25:59 19° NNE 03:25:59 19° NNE visible
03 Sep 13.0 05:06:24 10° NW 05:06:34 10° NW 05:06:34 10° NW visible
04 Sep 13.4 02:53:31 10° NNE 02:54:09 13° NNE 02:54:09 13° NNE visible
04 Sep 12.8 04:33:21 10° NNW 04:34:44 16° NNW 04:34:44 16° NNW visible
05 Sep 12.8 04:01:21 10° N 04:02:53 19° N 04:02:53 19° N visible
06 Sep 13.1 03:29:49 10° NNE 03:31:03 18° NNE 03:31:03 18° NNE visible
07 Sep 13.5 02:58:43 10° NNE 02:59:13 13° NNE 02:59:13 13° NNE visible
07 Sep 12.9 04:38:49 10° NNW 04:39:48 14° NNW 04:39:48 14° NNW visible
08 Sep 12.9 04:06:43 10° N 04:07:57 17° N 04:07:57 17° N visible
09 Sep 13.2 03:35:07 10° NNE 03:36:07 16° N 03:36:07 16° N visible
10 Sep 13.5 03:03:55 10° NNE 03:04:16 12° NNE 03:04:16 12° NNE visible
10 Sep 13.1 04:44:19 10° NNW 04:44:51 12° NNW 04:44:51 12° NNW visible
